GFSMA_850_thetae_159.txt.gz
Theta_e
336 335 332 331 331 332 333 332 334 331 328 326 323 321 322 324 325 324 324 325 325 325 325 325 325 325 326 326 322 317 314 311 310 310 310 310 311 311 311 311 311 312 311
335 335 334 332 331 331 331 332 333 330 327 325 324 322 320 323 324 324 324 324 325 324 324 324 324 324 324 323 320 317 315 313 312 311 312 312 313 312 312 312 310 310 312
330 333 333 332 331 330 329 331 332 330 327 325 323 322 321 323 324 323 323 323 324 324 323 323 323 324 324 323 320 316 315 315 315 314 313 313 313 314 313 312 312 311 310
333 333 332 332 331 329 329 329 331 330 327 325 324 322 320 323 323 322 323 323 323 323 323 323 322 324 323 322 320 317 316 315 313 313 313 314 314 314 313 312 312 311 311
326 331 333 331 328 328 328 327 329 331 327 324 322 321 319 322 322 322 322 322 322 322 322 322 321 322 322 322 320 318 314 313 313 313 314 314 314 314 313 312 311 311 310
322 329 329 329 326 326 325 325 326 329 326 324 322 321 320 321 321 321 321 322 322 320 321 320 321 320 321 321 321 318 315 313 312 312 313 314 314 313 313 312 311 310 310
321 325 327 328 327 326 327 327 329 327 324 323 322 321 321 321 320 320 321 320 320 320 319 318 319 319 319 317 319 319 317 313 312 312 312 313 313 312 312 311 310 310 309
321 323 325 328 327 326 325 324 326 327 325 324 321 320 320 320 320 319 320 321 319 317 314 314 315 313 315 315 316 310 311 312 311 311 311 311 312 312 311 310 309 309 309
323 323 323 321 324 322 325 326 326 327 326 323 322 320 320 319 319 321 321 319 317 313 312 312 312 311 310 311 310 310 310 310 311 311 311 311 311 311 311 310 309 309 308
323 323 321 322 322 320 325 324 326 326 327 324 321 320 320 318 319 318 319 318 316 312 314 313 313 313 311 312 311 311 311 311 310 311 311 311 310 310 311 310 308 308 308
324 323 321 322 322 321 323 323 325 325 324 324 321 321 318 320 317 315 317 316 315 313 315 315 314 314 313 312 312 312 312 311 311 311 311 311 311 310 310 309 308 307 307
324 324 324 324 323 324 323 323 324 325 324 323 323 322 321 321 319 318 318 317 317 314 315 316 315 315 314 313 313 312 312 312 311 310 311 312 311 310 310 308 307 306 306
324 324 323 323 324 324 324 324 324 324 325 325 323 322 321 321 320 319 318 318 319 317 316 316 315 315 315 315 314 312 311 311 311 310 311 312 311 310 308 308 305 305 306
322 324 324 323 325 327 326 326 325 325 324 324 323 322 321 320 316 319 317 317 317 318 317 316 316 315 315 314 313 312 311 311 310 310 311 311 310 309 307 305 305 305 303
321 321 324 326 327 327 325 326 327 325 321 324 324 322 322 320 319 317 315 316 316 316 316 317 316 315 315 314 313 311 311 310 309 311 311 310 308 307 306 305 305 303 300
322 321 321 322 324 325 326 325 326 326 325 324 322 322 321 321 317 317 314 314 313 314 315 314 314 314 313 312 312 311 311 308 310 311 310 309 306 305 304 305 302 300 297
321 321 320 321 323 324 325 324 325 325 325 322 321 323 320 317 315 316 315 314 314 314 314 315 314 313 312 311 311 311 309 310 311 310 308 305 304 303 303 301 299 295 295
321 321 321 321 321 323 324 324 324 324 324 321 320 319 319 317 316 315 315 316 316 315 315 315 314 313 313 312 311 309 309 310 308 306 304 302 303 302 300 297 295 295 295
322 322 322 323 323 323 324 324 323 322 320 320 320 320 320 319 318 316 316 317 316 316 316 315 313 313 313 310 310 310 310 307 305 303 302 301 299 296 296 295 295 296 295
322 323 322 322 322 322 322 321 321 322 320 320 321 319 318 318 318 317 317 316 316 316 314 314 314 313 312 311 309 308 306 304 302 301 300 297 296 295 295 296 296 295 294
321 321 322 321 321 321 320 321 321 320 320 319 319 318 318 317 317 317 316 315 314 314 314 312 311 309 308 307 306 304 302 301 300 299 297 295 294 294 295 295 295 295 294
320 320 321 322 321 321 320 320 319 319 319 318 318 316 316 317 315 314 315 314 312 309 308 307 306 305 304 303 302 301 300 298 296 296 295 294 294 294 294 294 294 293 293
318 320 320 320 320 320 319 319 319 318 317 317 316 316 315 314 313 312 310 309 307 306 305 304 303 301 300 298 297 296 295 295 295 294 294 293 293 293 293 293 293 293 293
317 317 317 318 317 316 316 316 316 316 315 315 314 313 312 310 308 306 304 302 300 298 296 295 294 294 293 293 293 293 293 293 293 293 293 293 293 293 293 293 292 292 291
315 316 316 316 316 314 315 315 315 314 313 311 309 307 305 302 300 298 296 295 294 294 294 294 294 294 294 292 292 293 292 292 291 291 291 291 291 290 290 290 291 291 290
312 313 313 313 313 313 311 311 311 310 308 305 302 299 296 295 294 294 293 293 293 294 294 294 293 293 292 291 291 290 290 290 290 291 290 290 290 289 290 289 289 289 289

GFSMA_850_thetae_162.txt.gz
Theta_e
337 337 335 334 332 332 331 333 335 334 329 328 327 326 326 326 326 326 325 325 325 326 325 325 325 326 326 323 320 318 314 315 314 313 313 313 312 312 311 311 312 312 315
334 335 335 334 332 331 332 333 334 332 328 326 327 326 325 325 325 327 325 326 325 326 325 324 324 324 324 321 320 318 318 317 316 315 315 315 315 314 313 313 312 313 316
330 333 334 334 333 332 332 332 333 332 328 326 326 326 325 324 324 325 326 327 325 324 324 323 323 323 323 322 320 321 322 318 317 316 316 316 315 315 315 314 314 312 312
323 329 332 333 333 332 331 331 331 331 328 325 325 325 325 324 325 324 325 325 324 324 323 323 322 322 322 322 323 322 322 319 318 316 316 315 315 315 315 314 313 313 314
321 322 326 331 331 333 331 330 330 330 327 325 324 324 324 324 322 323 323 324 323 323 323 322 322 321 321 321 321 320 317 316 315 315 316 317 316 316 316 313 313 312 313
322 321 322 328 330 331 330 329 329 329 328 325 324 323 323 322 322 322 323 323 322 322 321 321 320 321 320 320 321 319 317 315 313 314 314 314 314 314 315 316 312 310 310
322 321 322 327 328 327 326 326 325 327 328 325 323 321 322 321 322 322 322 321 322 324 324 322 323 320 320 320 319 319 318 315 312 312 313 313 313 313 312 311 312 310 309
322 321 321 323 326 326 326 326 327 327 325 325 323 321 322 320 321 321 321 323 323 322 322 320 320 321 321 320 318 312 312 312 312 312 312 312 312 312 312 311 310 310 309
321 321 322 324 325 326 326 326 325 326 325 323 322 320 320 320 317 320 321 321 322 321 319 319 320 319 319 319 315 311 311 310 311 311 311 312 311 312 311 311 310 309 308
321 321 323 324 324 325 324 321 324 326 325 323 322 321 320 320 319 319 317 319 320 320 318 318 318 317 317 317 313 312 311 311 311 311 311 311 311 311 311 311 310 308 307
322 323 323 322 322 323 323 321 324 326 326 324 323 321 319 319 318 317 318 318 319 318 318 318 316 315 313 313 312 312 312 311 311 311 311 311 311 311 311 310 309 308 306
324 324 323 322 321 322 320 322 323 324 325 325 324 321 320 320 320 318 318 318 317 318 315 315 315 314 314 313 313 312 312 312 312 311 310 310 312 311 310 309 308 307 306
324 324 324 324 322 323 322 322 323 323 324 325 324 323 321 318 318 317 320 318 318 317 314 313 316 316 315 315 314 314 313 312 312 311 310 310 311 311 309 308 308 306 305
324 324 324 324 324 325 325 328 325 325 323 324 324 323 321 318 320 318 318 318 319 317 316 316 316 315 315 315 315 315 314 312 311 311 309 311 311 310 309 307 306 305 304
321 321 322 323 325 324 325 325 325 325 325 324 324 323 317 318 319 318 318 317 317 318 318 318 316 317 316 316 315 314 312 312 311 310 309 311 311 309 308 306 305 304 300
321 321 321 321 326 326 325 325 325 326 326 322 322 323 318 321 319 318 316 316 315 315 317 315 314 315 315 314 314 313 311 311 310 309 310 311 310 308 306 304 303 301 299
322 322 322 321 321 323 324 326 326 324 325 326 325 323 322 321 321 318 317 315 313 312 313 314 313 314 314 313 313 312 312 310 309 309 310 310 308 306 304 303 301 298 296
321 321 320 319 323 325 323 324 324 323 325 324 324 321 320 320 319 319 317 316 315 314 313 313 313 314 314 314 313 313 310 309 308 310 309 306 304 303 302 299 298 295 295
321 322 321 321 322 323 323 325 324 324 324 323 321 320 319 321 318 317 315 315 316 315 315 316 316 315 314 313 312 311 309 308 309 308 305 303 302 300 299 297 295 295 295
323 322 322 322 322 323 323 323 323 323 321 319 319 319 320 319 318 317 316 316 316 316 316 315 314 313 312 311 310 309 308 308 305 303 302 301 300 298 296 295 295 295 295
322 321 321 322 322 321 321 321 320 320 320 319 319 319 318 317 317 317 316 315 315 314 314 314 313 311 310 309 308 306 304 303 302 301 300 298 297 295 295 294 295 295 295
321 320 321 321 321 320 320 319 319 319 319 318 318 317 317 317 316 315 314 314 313 312 311 309 307 305 305 304 303 302 301 300 300 299 298 296 295 295 295 294 294 294 294
320 320 320 320 320 319 319 319 319 319 318 318 317 316 315 314 314 314 312 310 309 308 306 305 304 303 301 301 300 298 298 297 297 296 295 295 295 294 294 293 293 294 293
319 319 319 319 319 318 318 318 317 317 316 315 314 313 312 311 309 307 304 302 300 298 297 296 295 294 294 294 294 294 294 294 294 294 293 294 294 294 293 293 293 293 292
317 317 317 316 316 316 316 316 316 315 314 312 310 309 307 302 298 297 296 295 294 294 294 294 294 294 294 292 292 293 293 294 294 293 292 292 293 292 292 292 292 291 291
316 315 315 315 314 313 314 314 314 313 312 309 303 298 296 295 294 294 294 294 295 296 296 296 294 294 294 293 291 291 292 292 292 292 291 291 291 291 291 291 291 291 291

GFSMA_850_thetae_165.txt.gz
Theta_e
340 339 339 339 338 335 332 332 333 334 334 331 329 328 328 328 328 326 325 325 326 327 325 325 325 325 323 322 320 319 323 319 318 316 315 315 315 314 313 312 313 316 327
336 336 336 339 336 337 337 333 332 333 332 330 328 328 327 327 327 325 325 326 326 325 325 324 324 324 324 322 320 320 318 318 318 318 317 316 316 315 314 313 315 317 316
336 336 338 339 335 335 334 336 333 333 331 329 328 327 326 326 325 325 326 327 326 325 324 324 323 323 323 322 321 319 320 319 318 317 317 316 316 316 315 314 315 315 315
323 332 334 335 332 334 334 334 334 334 330 328 327 326 326 325 325 325 326 327 326 324 323 323 322 322 322 322 322 321 320 320 319 319 315 315 316 316 315 314 315 315 313
322 321 325 331 329 331 332 333 333 331 331 328 326 326 325 325 324 327 327 326 324 323 323 322 321 321 321 321 321 320 318 317 316 316 316 316 316 316 314 313 313 312 312
327 327 322 327 328 329 330 333 332 331 330 328 326 325 324 324 322 324 325 324 323 323 322 321 321 320 320 320 320 321 318 316 314 313 313 314 314 314 314 313 311 310 309
327 325 324 323 326 327 328 329 330 330 329 326 325 324 323 323 322 323 323 323 323 322 321 319 320 320 319 319 319 319 319 314 312 312 312 313 313 313 313 312 312 310 309
324 325 322 321 325 325 328 328 328 327 327 327 324 323 321 319 321 319 322 322 321 322 320 321 320 319 319 319 319 317 313 312 312 312 312 312 312 313 312 312 311 310 309
327 322 325 322 324 325 325 326 325 326 325 324 324 323 320 317 321 321 320 321 322 322 320 320 320 320 320 320 318 311 311 311 310 311 311 312 312 312 312 312 311 310 308
327 321 321 322 326 326 326 326 325 322 323 324 323 321 320 318 318 316 319 319 321 321 320 319 319 319 319 319 317 315 311 311 311 311 311 311 311 312 312 311 311 309 308
327 323 322 324 326 325 324 325 323 324 324 324 323 321 320 320 316 316 317 319 319 320 319 318 319 318 317 318 315 312 311 311 311 311 311 311 310 312 311 311 310 309 308
322 323 324 326 327 324 323 325 322 324 324 325 323 322 321 320 318 318 315 314 313 317 318 318 318 317 316 314 313 312 312 312 312 311 311 311 310 311 311 311 310 309 307
322 324 324 325 323 322 323 322 321 324 323 324 324 324 322 319 318 315 318 318 317 318 318 317 317 316 315 314 314 314 313 313 313 312 312 311 309 311 311 310 309 308 306
324 324 323 324 327 324 324 322 321 322 323 324 325 324 323 320 319 319 318 318 318 318 317 314 313 314 315 316 316 315 315 315 314 312 311 311 309 311 311 309 308 306 305
324 324 324 324 324 327 324 325 325 324 324 324 324 324 323 321 319 317 319 319 319 318 317 317 317 316 316 316 316 316 315 315 313 311 310 309 310 311 310 309 307 305 303
321 321 321 321 324 324 325 326 326 326 325 325 323 322 323 320 318 317 318 317 318 318 319 318 316 315 316 315 315 315 314 314 312 311 310 309 310 310 309 307 305 304 302
322 322 322 322 322 322 325 325 325 325 325 325 324 322 322 320 319 319 317 316 315 314 315 315 315 314 313 313 314 313 312 312 311 312 310 308 310 309 307 304 303 302 299
321 321 321 321 321 321 324 323 323 325 325 325 324 324 323 320 316 319 317 316 317 316 314 313 313 313 313 313 313 312 311 312 312 311 308 308 309 306 304 303 302 299 297
321 321 321 321 320 320 321 323 323 324 323 324 323 323 322 320 316 318 318 318 316 316 315 314 314 313 313 314 315 314 312 311 310 309 308 307 305 302 301 301 299 297 295
321 321 321 322 321 321 322 322 323 324 324 322 320 319 318 318 318 318 317 317 315 316 316 316 316 315 314 313 312 311 310 309 308 307 305 302 301 301 300 298 296 295 295
321 321 322 322 321 321 322 323 322 321 319 319 318 319 318 318 318 317 317 316 315 316 315 314 313 312 311 310 309 308 307 304 304 302 300 299 299 298 297 296 295 295 295
320 321 321 321 321 320 320 320 320 319 319 318 317 317 317 317 317 316 315 315 314 313 311 309 307 305 304 303 303 301 301 301 301 300 299 298 297 297 296 296 295 295 295
321 321 320 320 320 319 319 319 319 319 318 317 317 316 316 315 315 314 312 311 308 307 305 304 303 302 301 301 300 299 299 299 299 298 297 295 296 296 295 295 294 293 294
320 320 320 320 319 319 319 319 319 318 316 315 315 314 314 311 309 306 305 304 302 300 298 297 296 295 294 294 294 294 295 295 295 295 294 294 295 294 294 293 293 293 292
318 318 317 317 317 317 317 317 316 315 314 312 310 310 309 305 300 297 296 295 295 294 294 294 294 294 293 293 292 294 294 295 295 294 293 292 293 293 292 293 292 292 291
316 316 315 316 315 315 314 315 314 314 313 311 308 301 297 296 295 295 296 298 298 297 297 296 295 294 294 294 293 292 292 293 292 292 292 291 291 291 291 292 291 291 290

GFSMA_850_thetae_168.txt.gz
Theta_e
338 338 337 337 339 338 336 335 333 333 333 333 331 329 328 328 329 328 324 325 326 326 325 326 325 325 322 323 322 318 317 317 317 317 317 317 316 315 314 314 315 322 329
336 336 337 336 336 336 335 334 331 331 332 332 329 328 328 328 328 327 324 326 327 325 324 324 324 325 325 323 324 320 318 317 317 316 316 316 316 317 317 316 316 314 315
335 333 332 334 334 335 335 335 335 332 332 330 329 327 327 327 327 322 325 327 326 325 323 323 323 323 323 325 321 319 318 317 315 315 316 315 315 315 316 316 316 316 316
334 330 335 333 333 332 333 333 334 332 332 330 329 327 326 326 325 325 326 326 326 324 323 322 322 322 322 323 324 323 319 317 315 315 315 315 316 315 314 313 313 314 314
323 323 324 332 330 327 329 332 332 330 331 330 328 327 326 326 325 325 327 326 325 323 323 322 321 321 322 321 321 321 321 316 316 316 316 316 318 316 314 312 311 310 309
326 323 322 324 325 323 324 328 332 331 330 330 327 327 326 325 325 325 327 327 325 323 322 321 321 320 320 320 320 321 319 316 314 314 314 314 315 315 314 313 311 310 310
332 330 324 323 327 322 325 330 329 329 327 328 326 326 325 325 325 322 322 325 323 323 321 320 320 320 319 319 319 320 319 315 312 312 312 312 313 313 313 314 314 311 310
328 327 325 322 322 327 326 329 328 327 328 327 325 325 324 323 323 323 324 324 323 322 321 319 319 318 318 319 319 317 313 312 312 311 312 312 312 313 313 313 313 311 309
327 328 326 323 324 326 325 326 328 328 325 325 325 324 321 320 322 322 323 323 321 321 320 320 320 319 319 317 318 317 311 311 311 311 311 311 312 312 313 313 312 312 309
328 327 325 325 324 329 325 325 325 325 325 325 325 324 322 321 319 318 317 317 318 317 320 320 320 320 320 319 318 316 311 311 311 311 311 311 310 312 312 313 312 311 310
329 326 323 321 322 326 325 325 325 325 323 322 321 323 322 319 319 318 319 319 319 321 320 319 319 319 319 319 318 315 313 311 311 311 311 311 311 310 312 312 312 311 310
326 324 322 322 326 325 326 325 324 324 322 323 324 323 323 321 320 318 317 317 319 320 320 319 318 317 318 317 316 312 312 312 312 312 311 311 311 310 311 312 312 311 309
322 321 322 325 325 326 322 323 324 323 324 324 324 323 323 322 320 318 317 317 315 318 319 318 317 314 314 313 313 313 313 313 313 313 312 312 311 310 310 311 311 310 308
321 323 324 325 326 323 321 322 322 322 323 323 323 324 323 322 320 318 316 318 316 318 318 316 317 315 316 316 315 314 314 315 315 315 314 312 311 310 310 311 310 308 306
327 324 327 326 328 325 324 323 322 322 323 323 323 323 323 323 319 318 316 319 317 317 316 317 317 315 315 315 315 315 315 315 315 314 313 311 310 310 310 310 309 307 305
323 323 324 324 327 326 324 324 324 324 323 324 324 324 323 322 321 319 317 319 318 318 317 317 316 316 316 315 315 316 315 315 314 314 312 311 310 309 310 310 307 305 304
322 322 321 321 323 326 324 325 324 324 324 325 325 323 321 321 322 319 317 318 316 318 318 317 316 315 314 314 314 313 313 313 313 312 311 311 309 308 309 307 304 303 302
321 321 321 321 322 322 324 323 324 325 324 324 323 322 323 322 320 319 318 317 317 315 315 316 315 314 313 312 312 312 312 311 311 310 310 309 308 308 307 304 302 301 300
322 321 321 320 320 321 321 322 322 322 322 323 323 323 323 322 319 318 318 317 316 315 316 316 314 313 313 313 313 313 313 311 310 310 308 307 307 304 303 301 300 299 297
321 320 320 321 321 320 320 320 321 321 322 323 322 320 319 319 318 318 317 316 317 316 315 314 314 314 314 314 313 312 310 309 308 307 306 303 302 301 300 299 298 297 296
320 320 321 321 320 320 321 321 320 321 320 319 318 317 316 317 316 318 318 317 316 315 315 315 314 313 312 311 310 309 307 306 303 303 302 301 300 299 298 297 296 295 295
321 321 321 321 321 321 321 321 320 318 318 318 318 316 316 316 316 316 316 315 315 314 313 311 310 308 306 305 304 303 302 302 301 300 300 299 297 297 296 296 296 295 295
320 321 320 320 320 319 319 319 318 318 318 317 317 317 316 316 315 315 314 314 313 310 308 306 305 303 302 301 299 299 298 298 299 299 298 297 295 295 295 295 294 294 293
320 320 320 319 319 319 319 319 318 317 316 315 315 315 315 314 312 310 307 305 304 303 301 299 298 295 294 294 293 294 294 295 296 295 294 293 294 294 294 293 293 293 292
320 320 319 319 318 317 317 317 317 316 315 314 313 311 310 304 299 297 296 295 295 294 294 294 294 294 293 293 292 294 294 294 294 294 293 292 292 292 291 292 292 292 291
318 317 317 317 316 316 315 315 315 315 313 311 308 301 297 296 295 296 297 298 297 297 296 295 294 294 294 293 293 292 292 292 291 292 291 290 290 290 290 290 291 290 289

GFSMA_850_thetae_171.txt.gz
Theta_e
338 338 337 337 337 336 336 335 332 332 333 334 333 331 330 329 329 328 325 327 327 325 324 324 325 325 326 325 324 321 319 319 320 322 324 325 324 319 314 315 324 327 327
337 338 337 337 336 336 335 335 334 332 332 333 331 328 328 328 328 327 323 327 327 325 323 323 324 323 324 325 325 320 318 318 317 318 320 323 324 322 319 318 320 320 321
330 329 330 334 335 334 334 333 334 333 332 332 331 328 328 328 327 326 324 327 326 325 323 322 322 322 323 324 324 322 319 315 316 317 317 317 318 318 318 319 316 316 316
329 325 327 330 328 328 330 332 333 333 331 331 329 327 327 326 326 321 325 326 326 324 323 321 322 322 322 322 323 322 319 317 315 315 315 316 314 314 314 315 314 312 314
333 327 328 327 325 325 325 327 330 330 332 331 329 327 326 326 325 325 325 326 325 324 322 322 321 321 321 321 321 321 317 316 315 315 313 314 315 313 312 311 311 311 311
325 323 324 324 324 323 324 324 326 330 330 330 329 327 326 326 326 325 327 326 325 323 322 321 321 321 320 320 320 321 319 315 313 313 314 315 315 314 314 313 311 311 311
325 323 325 324 322 321 323 325 330 329 327 328 327 326 325 326 325 326 327 326 325 323 322 320 320 320 319 318 319 319 320 316 313 312 312 313 314 314 314 313 313 311 311
327 331 328 327 325 322 321 330 327 327 326 326 325 325 324 325 326 325 325 326 324 323 322 320 320 319 319 318 319 317 313 312 311 311 311 312 312 313 313 313 313 311 311
326 332 331 327 325 322 324 324 326 326 325 325 324 325 323 323 324 323 321 324 323 322 321 320 319 318 316 317 316 317 313 311 310 311 310 310 311 312 313 313 313 312 310
326 328 328 327 323 323 324 324 327 326 325 325 324 325 323 323 323 323 323 324 323 322 321 320 320 319 319 318 318 317 315 311 311 311 311 311 311 310 311 312 312 312 311
329 328 327 324 322 327 324 324 326 325 324 325 324 324 324 322 322 322 322 323 323 322 320 320 320 320 319 320 318 317 314 312 311 311 311 311 311 311 310 311 312 312 311
328 327 326 325 322 323 324 324 324 324 325 324 323 322 322 323 322 321 320 320 320 318 318 319 320 320 319 319 318 315 314 313 312 312 312 312 312 311 310 311 312 312 310
326 325 323 322 324 324 325 323 324 324 323 322 322 323 323 322 322 321 321 320 319 318 320 319 319 319 318 318 318 315 312 312 313 313 313 313 312 311 310 310 311 311 310
323 321 321 324 325 325 322 322 323 324 323 324 323 323 323 323 322 322 321 318 318 319 319 318 316 316 317 315 315 314 312 314 314 314 314 314 313 311 310 310 311 310 308
323 323 326 326 324 323 322 322 322 323 322 322 322 322 323 323 322 321 319 318 317 317 316 318 315 315 318 317 316 315 315 315 315 315 315 313 311 310 309 309 310 309 307
324 326 326 324 325 323 324 324 324 323 323 323 322 323 322 322 320 321 319 316 318 316 318 318 317 317 316 316 315 315 316 315 315 314 313 313 310 310 309 309 309 306 303
322 321 321 323 325 323 322 323 324 324 323 322 323 324 323 322 322 321 320 317 318 318 317 317 317 316 316 316 316 315 314 314 313 313 313 312 310 309 309 308 307 303 301
320 320 321 321 322 325 322 322 324 323 322 323 323 323 323 322 321 321 319 317 318 316 317 317 316 316 315 313 313 312 311 312 312 311 311 310 309 308 308 306 303 302 301
321 321 321 320 320 322 321 322 323 322 322 323 323 323 323 323 322 320 319 318 316 316 316 316 316 315 314 313 311 311 311 310 309 309 308 308 307 307 305 303 302 300 299
320 320 321 320 320 320 321 321 322 321 321 322 321 323 321 320 320 318 318 317 317 316 315 316 315 314 313 312 312 311 310 308 308 307 306 304 302 301 300 299 298 297 297
320 320 320 320 320 319 320 321 320 320 321 321 318 318 318 317 317 317 318 317 316 317 316 315 314 313 312 311 309 307 306 304 304 303 302 300 300 299 298 297 296 296 296
319 320 320 321 321 320 320 320 320 320 318 318 318 316 316 316 316 317 317 316 316 315 314 313 312 310 308 306 304 303 302 301 301 299 299 299 298 297 296 296 295 295 294
320 319 319 320 320 319 319 319 318 318 317 317 317 317 316 316 316 316 316 315 314 311 309 307 304 303 301 299 297 297 297 298 298 298 297 296 295 295 295 294 294 293 293
320 319 319 319 318 318 318 318 318 317 317 316 316 316 315 314 313 312 310 308 304 302 300 298 296 294 294 293 293 293 294 295 295 295 294 293 293 294 293 293 293 293 292
319 319 319 318 318 318 318 318 318 317 315 314 314 312 311 305 299 297 296 296 295 295 294 294 294 294 294 293 292 292 293 294 294 294 293 291 290 290 290 291 292 292 291
319 319 318 318 317 317 317 316 316 316 313 312 309 301 297 297 298 298 299 298 297 296 295 295 294 294 293 292 292 291 290 291 290 291 290 290 290 290 290 290 289 290 290

GFSMA_850_thetae_174.txt.gz
Theta_e
339 339 338 337 337 336 336 333 332 332 332 332 331 330 329 330 329 328 325 327 326 324 323 325 324 325 325 325 326 325 324 326 325 323 321 320 319 317 320 325 326 325 326
339 338 337 337 336 336 336 336 335 333 332 333 333 331 330 330 328 327 324 328 326 324 322 323 323 323 323 324 325 324 324 323 323 322 323 323 323 321 319 318 320 320 324
332 335 336 336 336 335 333 334 333 334 331 332 332 330 329 329 327 326 324 327 327 325 322 321 322 323 323 323 323 323 321 322 321 321 321 320 320 318 316 316 317 317 318
331 327 325 323 324 324 329 330 333 333 332 332 330 329 328 327 326 324 323 327 326 325 324 322 322 322 322 321 322 323 321 321 320 320 318 317 316 316 316 315 315 315 315
331 329 327 325 325 325 325 325 329 330 331 331 329 327 327 327 326 323 324 326 326 324 323 323 322 320 321 321 321 322 320 321 318 317 317 316 315 314 313 314 313 312 312
335 330 327 326 325 323 323 323 326 329 330 331 328 327 326 326 326 325 325 326 325 324 322 323 321 320 320 320 320 319 322 319 316 316 316 315 314 314 313 312 311 311 311
329 328 327 327 325 326 324 325 326 326 327 328 328 327 326 325 326 326 326 326 325 323 322 321 320 321 320 319 319 319 320 320 315 313 312 313 314 314 314 313 311 311 311
326 327 325 326 326 324 322 323 324 325 326 325 327 326 326 326 326 326 327 326 325 323 322 321 320 320 319 318 319 315 311 315 313 311 311 311 312 313 313 314 313 311 310
324 325 328 329 327 326 323 323 323 325 325 326 326 325 324 324 324 325 325 324 324 324 322 321 320 320 319 318 317 317 317 311 310 310 310 310 310 311 312 313 313 312 312
324 326 328 329 327 325 323 323 325 324 324 324 324 324 324 323 322 323 323 322 322 324 322 321 320 319 319 318 316 317 317 314 310 311 311 311 311 311 311 312 313 312 312
322 327 328 328 327 323 323 324 323 323 323 323 323 323 323 323 323 322 322 321 323 323 322 321 320 320 319 318 318 317 316 313 312 311 311 311 311 311 311 310 311 312 312
327 326 327 326 325 324 323 322 323 323 322 324 324 324 323 323 323 322 322 322 322 323 322 321 320 320 320 319 319 317 316 312 311 311 312 312 312 312 311 310 310 311 311
325 326 326 326 323 322 323 323 323 322 324 323 325 323 322 323 322 322 321 321 321 321 321 320 319 319 320 318 318 318 316 313 312 312 313 313 312 312 311 310 310 310 310
325 326 325 323 324 324 324 322 323 323 324 323 322 323 323 322 323 321 321 321 320 319 319 319 318 320 317 317 317 317 317 314 313 314 313 314 314 313 311 310 310 310 309
325 324 322 321 324 324 323 322 322 324 323 323 322 322 322 322 322 322 322 321 320 319 319 318 317 315 314 315 316 316 316 316 315 315 315 315 314 312 311 310 309 309 308
322 323 325 324 323 323 324 323 322 322 321 322 323 322 322 322 320 321 321 321 319 318 318 317 317 315 314 313 317 317 316 316 315 315 315 314 313 312 310 309 309 309 307
322 324 324 323 322 322 322 322 323 324 323 323 322 323 323 322 321 322 321 320 317 317 316 316 317 317 317 317 316 315 315 315 315 314 313 313 312 311 310 309 308 307 303
322 321 321 322 324 322 322 322 322 323 323 322 322 323 321 321 322 320 321 319 317 318 317 317 316 316 316 316 315 315 313 312 312 312 312 311 309 308 308 307 306 303 301
319 320 320 320 321 322 321 321 322 323 322 322 322 321 323 323 321 321 320 319 317 317 316 317 316 316 315 314 313 313 312 311 310 310 309 308 307 307 305 303 302 301 300
320 320 320 319 320 319 320 321 322 322 322 320 321 320 322 320 321 320 318 317 317 316 316 315 316 315 314 313 312 311 310 310 308 308 307 305 303 301 300 300 300 299 297
320 321 320 320 319 320 321 321 321 320 320 320 321 320 319 319 318 317 318 318 317 316 316 316 315 313 312 311 309 307 306 305 304 302 301 301 300 299 298 297 297 296 296
318 319 319 320 319 319 321 320 320 321 320 318 318 317 315 316 316 317 317 317 316 316 315 314 312 309 308 306 303 301 301 300 300 299 298 298 298 297 297 296 295 295 294
319 319 320 320 319 320 320 320 320 318 317 317 317 316 316 316 316 317 316 315 315 314 311 309 305 302 300 297 295 295 296 296 297 297 297 296 295 295 295 294 293 293 293
319 319 319 319 319 318 319 318 318 317 317 316 316 316 316 315 314 313 312 310 307 304 301 298 296 294 294 293 293 293 293 294 294 295 294 293 292 292 292 293 292 292 292
319 318 318 318 318 318 318 318 317 317 316 316 315 313 312 307 299 297 297 297 296 296 294 294 294 294 294 292 292 291 292 293 293 293 292 290 290 289 290 290 291 291 290
319 318 318 318 318 317 317 317 316 316 315 313 310 299 297 298 299 298 298 298 298 296 295 295 294 293 292 291 291 290 290 290 290 290 290 290 289 289 289 289 290 289 289